Concordia, KS

2:03 AM CDT on October 17, 2017 (GMT -0500)
Blosser Municipal

Weather History for KCNK - March, 2014

Change the Weather History Date:

Sunday, March 9, 2014

  Actual Average Record
Temperature  
Mean Temperature 50 °F 41 °F  
Max Temperature 70 °F 52 °F 81 °F (1986)
Min Temperature 30 °F 29 °F 3 °F (1912)
Degree Days  
Heating Degree Days 15 24  
Month to date heating degree days 353 233  
Since 1 July heating degree days 4835 4440  
Cooling Degree Days 0 0  
Month to date cooling degree days 0 0  
Year to date cooling degree days 0 0  
Growing Degree Days 1 (Base 50)    
Moisture  
Dew Point 26 °F    
Average Humidity 45    
Maximum Humidity 69    
Minimum Humidity 20    
Precipitation  
Precipitation 0.00 in 0.06 in 0.96 in (1907)
Month to date precipitation 0.07 0.43  
Year to date precipitation 1.26 1.80  
Snow  
Snow 0.00 in 0.10 in 7.50 in (1975)
Month to date snowfall 0.6 0.7  
Year to date snowfall 15.3 11.1  
Since 1 July snowfall 21.6 17.6  
Snow Depth 0.00 in    
Sea Level Pressure  
Sea Level Pressure 30.07 in    
Wind  
Wind Speed 16 mph (SW)    
Max Wind Speed 28 mph    
Max Gust Speed 36 mph    
Visibility 10 miles    
Events      
T = Trace of Precipitation, MM = Missing Value Source: NWS Daily Summary

Daily Weather History Graph

Daily Weather History Graph

Search for Another Location

Airport or City:

Trip Planner

Search our weather history database for the weather conditions in past years. The results will help you decide how hot, cold, wet, or windy it might be!

Date:

Astronomy

Mar. 09, 2014 Rise Set
Actual Time 7:51 AM CDT 7:31 PM CDT
Civil Twilight 7:24 AM CDT 7:58 PM CDT
Nautical Twilight 6:53 AM CDT 8:29 PM CDT
Astronomical Twilight 6:22 AM CDT 9:00 PM CDT
Moon 1:26 PM CDT (3/9) 3:17 AM CDT (3/9)
Length of Visible Light 12h 33m
Length of Day
11h 40m
First Quarter, 61% of the Moon is Illuminated
Mar 9
First Quarter
Mar 16
Full
Mar 23
Last Quarter
Mar 30
New
Apr 7
First Quarter

Hourly Weather History & Observations

Time (CDT) Temp. Windchill Dew Point Humidity Pressure Visibility Wind Dir Wind Speed Gust Speed Precip Events Conditions
12:55 AM 32.0 °F 23.0 °F 14.0 °F 48% 30.29 in 10.0 mi South 11.5 mph - N/A   Clear
1:55 AM 30.9 °F 24.3 °F 15.1 °F 52% 30.30 in 10.0 mi SW 6.9 mph - N/A   Clear
3:55 AM 30.0 °F 24.1 °F 15.1 °F 54% 30.28 in 10.0 mi WSW 5.8 mph - N/A   Clear
4:55 AM 32.0 °F 22.5 °F 16.0 °F 52% 30.23 in 10.0 mi SW 12.7 mph - N/A   Clear
5:55 AM 33.1 °F 24.4 °F 17.1 °F 52% 30.23 in 10.0 mi SW 11.5 mph - N/A   Clear
6:55 AM 33.1 °F 24.4 °F 21.0 °F 61% 30.22 in 10.0 mi SW 11.5 mph - N/A   Clear
7:55 AM 32.0 °F 22.1 °F 23.0 °F 69% 30.21 in 10.0 mi SSW 13.8 mph - N/A   Clear
8:55 AM 34.0 °F 24.6 °F 24.1 °F 67% 30.20 in 10.0 mi SSW 13.8 mph - N/A   Clear
9:55 AM 41.0 °F 33.9 °F 28.9 °F 62% 30.19 in 10.0 mi SW 12.7 mph - N/A   Clear
10:55 AM 46.0 °F 39.9 °F 30.0 °F 54% 30.18 in 10.0 mi SW 13.8 mph - N/A   Clear
11:55 AM 54.0 °F - 32.0 °F 43% 30.16 in 10.0 mi SW 13.8 mph 25.3 mph N/A   Clear
12:55 PM 63.0 °F - 28.9 °F 28% 30.12 in 10.0 mi SW 21.9 mph 28.8 mph N/A   Clear
1:55 PM 66.0 °F - 28.9 °F 25% 30.05 in 10.0 mi SW 25.3 mph 35.7 mph N/A   Clear
2:55 PM 68.0 °F - 27.0 °F 21% 30.01 in 10.0 mi SW 21.9 mph 34.5 mph N/A   Clear
3:55 PM 69.1 °F - 27.0 °F 21% 29.98 in 10.0 mi SW 19.6 mph 32.2 mph N/A   Clear
4:55 PM 70.0 °F - 28.0 °F 21% 29.94 in 10.0 mi SW 20.7 mph 33.4 mph N/A   Clear
5:55 PM 68.0 °F - 28.9 °F 23% 29.92 in 10.0 mi SW 20.7 mph 28.8 mph N/A   Clear
6:55 PM 64.9 °F - 28.9 °F 26% 29.92 in 10.0 mi SW 16.1 mph - N/A   Clear
7:55 PM 60.1 °F - 30.9 °F 33% 29.91 in 10.0 mi SSW 20.7 mph 28.8 mph N/A   Clear
8:55 PM 57.9 °F - 30.0 °F 35% 29.90 in 10.0 mi SSW 21.9 mph 28.8 mph N/A   Clear
9:55 PM 55.9 °F - 30.0 °F 37% 29.90 in 10.0 mi SSW 20.7 mph - N/A   Clear
10:55 PM 52.0 °F - 28.9 °F 41% 29.90 in 10.0 mi SSW 20.7 mph - N/A   Clear
11:55 PM 50.0 °F - 28.0 °F 43% 29.88 in 10.0 mi SSW 20.7 mph 28.8 mph N/A   Clear
12:55 AM 48.9 °F - 27.0 °F 43% 29.86 in 10.0 mi SSW 16.1 mph - N/A   Clear